Tracking 27380 objects as of 5-Jun-2023
HD Live streaming from Space Station
objects crossing your sky now

DELTA 1 DEB

Track DELTA 1 DEB now!
10-day predictions


NORAD ID: 7145
Int'l Code: 1973-086DK
Perigee: 1,514.5 km
Apogee: 2,029.0 km
Inclination: 102.0 °
Period: 121.9 minutes
Semi major axis: 8142 km
RCS: 0.3002 m2 (medium)
Launch date: November 6, 1973
Source: United States (US)
Launch site: AIR FORCE WESTERN TEST RANGE (AFWTR)

Note: This is SATELLITE DEBRIS
Your satellite tracking list
Your tracking list is empty




NASA's NSSDC Master Catalog

Two Line Element Set (TLE):
1 07145U 73086DK  23155.71372119 -.00000026  00000-0  14117-3 0  9994
2 07145 102.0080  77.2406 0315959 114.2709 318.2246 11.81538479137882
Source of the keplerian elements: AFSPC